Probability
0 1 2 2 1 0 0 0 0 0 0 0 0 0 0 0 0 0 0 0 0 0 0 0 0 0 0 0 0 0 0 0 0 0 0 0 0 0 0 0 0 0 0
0 1 2 2 1 1 0 0 0 0 0 0 0 0 0 0 0 0 0 0 0 0 0 0 0 0 0 0 0 0 0 0 0 0 0 0 0 0 0 0 0 0 0
0 0 1 2 3 2 1 0 0 0 0 0 0 0 0 0 0 0 0 0 0 0 0 0 0 0 0 0 0 0 0 0 0 0 0 0 0 0 0 0 0 0 0
0 0 1 2 4 4 3 1 0 0 0 0 0 0 0 0 0 0 0 0 0 0 0 0 0 0 0 0 0 0 0 0 0 0 0 0 0 0 0 0 0 0 0
1 1 1 1 3 5 4 1 0 0 0 0 0 0 0 0 0 0 0 0 0 0 0 0 0 0 0 0 0 0 0 0 0 0 0 0 0 0 0 0 0 0 0
1 1 1 1 3 5 4 1 0 0 0 0 0 0 0 0 0 0 0 0 0 0 0 0 0 0 0 0 0 0 0 0 0 0 0 0 0 0 0 0 0 0 0
1 1 0 0 2 3 3 2 0 0 0 0 0 0 0 0 0 0 0 0 0 0 0 0 0 0 0 0 0 0 0 0 0 0 0 0 0 0 0 0 0 0 0
2 2 1 0 1 2 2 1 0 0 0 0 0 0 0 0 0 0 0 0 0 0 0 0 0 0 0 0 0 0 0 0 0 0 0 0 0 0 0 0 0 0 0
3 2 1 1 1 1 1 0 0 0 0 0 0 0 0 0 0 0 0 0 0 0 0 0 0 0 0 0 0 0 0 0 0 0 0 0 0 0 0 0 0 0 0
2 1 0 1 2 2 1 0 0 0 0 0 0 0 0 0 0 0 0 0 0 0 0 0 0 0 0 0 0 0 0 0 0 0 0 0 0 0 0 0 0 0 0
1 1 1 0 1 1 1 0 0 0 0 0 0 0 0 0 0 0 0 0 0 0 0 0 0 0 0 0 0 0 0 0 0 0 0 0 0 0 0 0 0 0 0
2 2 1 0 0 0 0 1 1 0 0 0 0 0 0 0 0 0 0 0 0 0 0 0 0 0 0 0 0 0 0 0 0 0 0 0 0 0 0 0 0 0 0
2 2 1 0 0 0 1 2 2 1 1 0 0 0 0 0 0 0 0 0 0 0 0 0 0 0 0 0 0 0 0 0 0 0 0 0 0 0 0 0 0 0 0
1 1 1 0 0 0 2 3 3 3 2 1 0 0 0 0 0 0 0 0 0 0 0 0 0 0 0 0 0 0 0 0 0 0 0 0 0 0 0 0 0 0 0
1 1 1 0 0 0 1 2 3 2 2 1 0 0 0 0 0 0 0 0 0 0 0 0 0 0 0 0 0 0 0 0 0 0 0 0 0 0 0 0 0 0 0
1 2 2 1 0 0 1 2 2 1 1 0 0 0 0 0 0 0 0 0 0 0 0 0 0 0 0 0 0 0 0 0 0 0 0 0 0 0 0 0 0 0 0
1 2 2 1 0 0 0 1 1 1 0 0 0 0 0 0 0 0 0 0 0 0 0 0 0 0 0 0 0 0 0 0 0 0 0 0 0 0 0 0 0 0 0
1 1 2 1 0 0 0 1 1 1 0 0 0 0 0 0 0 0 0 0 0 0 0 0 0 0 0 0 0 0 0 0 0 0 0 0 0 0 0 0 0 0 0
1 1 1 1 0 0 0 0 0 0 0 0 0 0 0 0 0 0 0 0 0 0 0 0 0 0 0 0 0 0 0 0 0 0 0 0 0 0 0 0 0 0 0
0 0 0 0 0 0 0 0 0 0 0 0 0 0 0 0 0 0 0 0 0 0 0 0 0 0 0 0 0 0 0 0 0 0 0 0 0 0 0 0 0 0 0
0 0 0 0 0 0 0 0 0 0 0 0 0 0 0 0 0 0 0 0 0 0 0 0 0 0 0 0 0 0 0 0 0 0 0 0 0 0 0 0 0 0 0
0 0 0 0 0 0 0 0 0 0 0 0 0 0 0 0 0 0 0 0 0 0 0 0 0 0 0 0 0 0 0 0 0 0 0 0 0 0 0 0 0 0 0
0 0 0 0 0 0 0 0 0 0 0 0 0 0 0 0 0 0 0 0 0 0 0 0 0 0 0 0 0 0 0 0 0 0 0 0 0 0 0 0 0 0 0
0 0 0 0 0 0 0 0 0 0 0 1 1 0 0 0 0 0 0 0 0 0 0 0 0 0 0 0 0 0 0 0 0 0 0 0 0 0 0 0 0 0 0
0 0 0 0 0 0 0 0 0 0 1 2 2 1 1 0 0 0 0 0 0 0 0 0 0 0 0 0 0 0 0 0 0 0 0 0 0 0 0 0 0 0 0
0 0 0 0 0 0 0 0 0 0 1 2 3 2 2 1 0 0 0 0 0 0 0 0 0 0 0 0 0 0 0 0 0 0 0 0 0 0 0 0 0 0 0
Wind_Speed
0 1 4 5 7 8 10 10 10 10 10 10 10 10 10 10 10 10 10 10 10 10 10 11 11 10 10 10 10 10 11 10 10 10 9 9 9 10 9 8 6 6 9
1 1 4 6 7 9 10 10 11 11 11 10 10 10 10 10 10 10 10 10 10 10 10 10 10 10 10 10 10 10 10 10 9 9 7 6 8 9 9 8 7 6 8
3 3 4 6 8 9 10 10 10 11 11 11 11 11 10 10 10 9 10 10 10 10 10 10 10 9 9 9 9 9 9 9 8 7 4 4 6 8 7 7 6 7 7
4 3 4 7 8 9 10 10 10 10 10 11 11 11 11 10 10 9 9 9 9 10 10 10 10 9 8 8 8 8 8 8 7 4 3 4 4 6 6 6 5 5 5
4 4 5 7 8 9 10 10 10 10 10 11 11 11 11 11 11 10 9 9 9 9 10 9 9 9 9 8 8 8 7 7 5 2 4 4 4 6 6 6 5 5 4
5 4 6 8 9 9 9 10 10 10 10 10 10 10 10 11 11 10 10 9 9 9 9 9 9 9 9 8 8 8 7 6 2 3 4 4 4 5 5 5 5 5 4
5 4 5 7 8 9 9 9 9 10 10 10 10 10 10 10 10 10 10 10 10 9 8 8 8 8 8 8 8 8 7 6 4 4 4 4 5 6 5 5 5 4 4
5 4 5 7 8 9 9 10 10 10 10 10 10 10 10 10 10 10 10 9 9 9 9 8 8 8 8 9 8 8 7 5 3 4 4 4 7 6 5 5 5 4 4
5 5 4 5 6 8 9 9 10 10 10 10 10 10 10 10 10 10 10 10 9 9 9 9 9 9 9 9 9 8 7 6 4 4 4 4 7 7 6 6 5 5 4
5 5 4 4 4 4 5 8 9 9 9 10 10 9 9 9 9 9 9 10 9 9 9 8 8 8 8 8 8 7 6 3 4 4 3 5 8 7 7 6 6 6 5
4 4 4 4 3 3 3 5 6 7 8 7 7 8 5 4 5 5 8 9 9 9 8 8 7 7 7 6 7 7 4 3 4 3 3 7 8 7 7 7 6 6 6
3 3 3 3 3 3 3 2 2 3 3 3 4 4 3 4 4 4 6 8 8 8 7 8 7 5 4 3 4 4 2 3 3 3 4 8 7 7 7 7 7 7 6
2 3 3 3 2 2 2 2 2 1 2 2 4 4 3 3 2 3 2 3 4 4 4 4 4 3 4 3 3 3 3 3 2 3 5 8 8 8 8 8 8 7 7
2 2 2 3 3 2 2 2 2 2 2 2 3 3 2 2 2 2 2 2 2 2 3 3 3 4 4 3 4 4 4 2 2 2 4 8 8 8 8 8 8 7 8
2 2 2 2 3 2 2 2 2 2 2 2 2 2 2 2 2 2 2 2 3 2 2 3 3 3 3 3 3 3 3 3 3 2 3 7 8 8 8 8 8 8 7
2 1 1 2 2 2 2 2 1 1 1 1 2 2 2 2 2 2 2 2 2 3 3 2 3 3 3 3 3 3 3 2 2 2 2 3 6 7 8 9 9 8 8
2 2 1 1 2 2 2 1 1 1 1 1 2 2 3 2 2 2 2 2 2 2 2 2 3 2 2 2 2 3 2 2 2 2 2 2 2 5 7 8 8 8 8
2 2 1 1 1 1 2 1 1 1 2 1 2 2 3 3 3 2 2 2 2 2 2 2 2 3 2 2 2 2 2 2 2 2 2 2 2 2 4 7 8 8 8
2 1 1 1 1 1 1 1 1 1 2 2 2 2 2 2 2 2 2 2 2 2 2 2 2 2 2 3 2 2 2 2 2 2 2 2 2 3 3 4 6 7 8
2 1 1 1 1 1 1 1 1 1 1 2 2 3 3 3 3 2 1 2 2 1 1 2 2 2 2 3 2 2 2 2 2 2 2 2 2 3 3 4 4 4 7
2 2 1 1 0 1 0 0 0 1 1 1 2 3 3 3 3 2 2 2 2 1 2 2 2 2 2 2 2 2 2 2 2 1 2 2 2 3 3 4 3 3 3
3 2 2 2 1 1 0 1 1 2 1 1 1 2 3 3 3 2 2 2 2 2 2 2 2 2 2 2 3 3 3 3 1 2 2 2 3 3 4 4 4 5 5
3 3 3 3 2 1 1 0 0 1 1 0 1 2 2 3 3 3 3 2 2 2 2 2 2 3 2 2 2 3 3 3 3 2 3 3 3 3 4 4 4 5 5
4 3 3 2 2 1 1 1 1 1 1 1 2 2 3 3 2 3 3 3 3 2 3 3 3 3 3 3 2 2 3 4 4 3 2 3 4 4 4 4 4 4 5
3 3 2 2 2 2 2 2 2 2 2 1 1 2 2 2 2 3 3 3 3 2 3 3 3 3 3 3 3 3 3 4 4 5 5 5 4 4 4 5 4 4 5
2 2 2 2 2 2 2 2 2 2 3 2 2 2 2 2 2 3 3 3 3 3 3 3 3 3 3 4 3 3 3 3 4 4 6 6 6 4 5 5 4 4 4
Wind_Direction
353 22 23 55 70 74 76 77 77 76 78 80 82 82 82 79 76 73 72 70 71 71 69 68 67 66 64 63 62 61 59 56 56 54 54 57 60 62 63 57 45 63 59
97 100 54 61 77 76 75 77 76 75 75 76 78 81 80 77 75 73 72 70 69 68 68 67 67 66 63 63 62 61 57 51 49 45 40 61 59 55 58 58 44 53 53
95 90 82 64 77 75 75 75 74 73 72 72 73 74 74 71 70 71 69 66 66 66 67 68 67 66 64 63 61 59 57 51 48 39 13 50 63 54 51 55 55 54 51
95 90 80 63 74 76 75 75 74 73 72 71 70 69 68 66 65 64 66 64 65 66 65 64 63 63 62 61 59 57 54 51 45 16 35 44 50 54 46 48 50 52 52
95 87 73 59 72 75 74 74 74 72 71 70 69 67 64 61 59 57 61 62 64 64 63 62 61 58 56 56 57 54 50 47 36 14 43 37 40 46 41 42 41 43 45
91 86 77 60 70 72 73 73 73 72 70 69 66 64 62 61 58 56 57 58 60 60 60 60 58 57 52 50 52 50 47 38 5 39 38 27 32 37 33 38 39 40 41
88 87 86 63 66 68 70 71 69 68 68 67 65 61 58 58 56 53 53 54 54 54 55 55 52 50 47 45 45 44 43 25 14 32 26 27 33 28 30 32 31 32 30
89 85 90 65 61 62 63 64 65 64 65 64 61 58 54 53 53 50 50 51 49 48 47 47 45 43 44 41 40 39 33 12 24 32 27 27 30 21 23 28 26 21 20
91 85 88 89 78 65 60 59 60 60 60 59 57 54 50 47 46 44 45 44 44 45 43 42 41 41 40 38 34 33 29 13 11 29 27 27 25 16 22 22 22 19 16
83 75 72 80 85 90 82 61 59 59 57 57 54 50 48 48 45 40 42 39 39 40 41 40 40 40 36 34 31 26 18 8 20 26 24 26 18 12 13 15 17 18 15
76 73 64 69 71 75 81 70 68 62 56 57 57 47 44 49 48 44 40 34 35 35 35 35 38 39 35 37 30 19 6 13 16 18 19 23 13 8 10 13 12 12 10
72 68 63 62 67 68 66 73 75 70 63 56 52 51 43 38 36 32 42 33 32 32 35 32 28 29 15 19 26 10 5 12 12 18 23 22 13 10 10 13 15 11 7
75 66 61 52 56 69 68 59 56 57 54 51 46 40 36 37 33 24 30 29 27 25 28 24 18 13 13 6 2 5 4 5 8 15 21 22 16 15 15 15 13 10 7
92 61 70 65 55 55 68 66 56 50 47 44 36 27 28 27 22 18 14 10 12 11 7 6 8 11 8 8 3 4 7 2 6 9 21 23 16 15 15 12 10 8 6
115 72 61 66 60 52 63 62 62 54 45 44 36 24 19 17 13 12 8 6 5 1 359 357 1 4 3 0 5 5 4 4 359 5 27 32 23 17 14 11 10 9 7
147 118 69 69 65 54 47 61 51 50 45 33 31 24 17 9 4 358 0 359 359 355 354 348 350 350 356 357 1 358 351 350 4 4 9 32 33 18 12 8 7 4 2
164 155 116 78 57 55 39 49 49 38 24 27 19 15 12 6 356 349 350 353 351 348 348 350 352 342 346 355 3 356 348 350 351 353 351 347 8 25 13 3 0 357 353
167 154 129 95 67 45 33 8 61 43 31 20 12 8 10 7 357 344 341 343 340 336 340 344 346 343 339 338 336 338 339 338 341 338 342 342 336 340 5 5 359 352 347
180 165 153 132 105 63 40 12 43 53 36 18 11 8 1 357 352 345 337 340 338 335 339 342 348 338 334 331 326 324 323 317 314 329 332 332 331 332 331 352 354 351 346
191 175 181 145 85 68 77 29 29 57 34 19 12 12 1 353 347 340 330 340 339 334 338 338 341 339 325 323 318 315 309 302 296 303 316 320 321 326 328 328 328 338 345
207 196 196 204 158 122 101 262 318 323 345 13 7 4 358 353 348 337 331 329 329 325 324 325 330 328 330 327 299 304 294 283 275 297 314 315 323 326 331 327 321 322 323
214 223 226 225 215 211 269 271 281 279 262 325 356 351 352 344 338 331 335 332 324 314 313 319 322 310 317 324 298 289 280 258 237 299 293 302 309 323 333 333 333 332 327
213 228 242 238 228 236 271 255 340 267 243 283 324 331 336 328 327 330 323 322 315 304 294 299 293 289 290 292 298 289 283 281 308 254 284 294 307 312 315 317 321 327 329
225 220 236 248 237 224 212 220 233 279 274 295 309 316 322 319 317 319 317 313 310 305 300 294 292 291 279 277 276 275 285 294 282 280 265 283 306 305 307 308 312 315 317
232 226 224 226 242 234 208 218 234 263 271 266 290 299 313 326 325 320 316 304 303 303 300 294 292 289 286 283 279 271 265 271 271 275 279 283 287 284 293 297 298 300 304
231 229 217 206 234 244 217 213 222 254 274 269 276 282 300 314 318 325 320 311 306 301 299 294 288 284 282 281 280 279 274 270 272 273 278 287 286 287 288 283 286 296 304